TimeEST,TemperatureF,Dew PointF,Humidity,Sea Level PressureIn,VisibilityMPH,Wind Direction,Wind SpeedMPH,Gust SpeedMPH,PrecipitationIn,Events,Conditions,WindDirDegrees,DateUTC
12:51 AM,25.0,17.1,72,30.36,-9999.0,North,13.8,18.4,N/A,,Unknown,10,2013-02-09 05:51:00
1:51 AM,24.1,18.0,77,30.37,-9999.0,NNE,11.5,-,N/A,,Unknown,20,2013-02-09 06:51:00
2:51 AM,24.1,15.1,69,30.37,-9999.0,NNE,10.4,-,N/A,,Unknown,20,2013-02-09 07:51:00
3:51 AM,24.1,17.1,75,30.39,-9999.0,North,10.4,-,N/A,,Unknown,10,2013-02-09 08:51:00
4:51 AM,24.1,15.1,69,30.40,-9999.0,North,5.8,-,N/A,,Unknown,360,2013-02-09 09:51:00
5:51 AM,24.1,15.1,69,30.41,-9999.0,North,5.8,-,N/A,,Unknown,360,2013-02-09 10:51:00
6:51 AM,24.1,15.1,69,30.42,-9999.0,NNE,5.8,-,N/A,,Unknown,20,2013-02-09 11:51:00
7:51 AM,23.0,14.0,68,30.44,-9999.0,NE,3.5,-,N/A,,Unknown,40,2013-02-09 12:51:00
8:51 AM,24.1,14.0,65,30.44,-9999.0,Calm,Calm,-,N/A,,Unknown,0,2013-02-09 13:51:00
9:51 AM,24.1,16.0,71,30.45,-9999.0,Calm,Calm,-,N/A,,Unknown,0,2013-02-09 14:51:00
10:51 AM,25.0,16.0,69,30.45,-9999.0,Calm,Calm,-,N/A,,Unknown,0,2013-02-09 15:51:00
11:51 AM,25.0,15.1,66,30.45,-9999.0,Calm,Calm,-,N/A,,Unknown,0,2013-02-09 16:51:00
12:51 PM,27.0,15.1,61,30.43,-9999.0,Calm,Calm,-,N/A,,Unknown,0,2013-02-09 17:51:00
1:51 PM,26.1,14.0,60,30.41,-9999.0,Variable,3.5,-,N/A,,Unknown,0,2013-02-09 18:51:00
2:51 PM,26.1,15.1,63,30.39,-9999.0,SSE,5.8,-,N/A,,Unknown,160,2013-02-09 19:51:00
3:51 PM,26.1,15.1,63,30.38,-9999.0,Variable,4.6,-,N/A,,Unknown,0,2013-02-09 20:51:00
4:51 PM,26.1,14.0,60,30.37,-9999.0,South,3.5,-,N/A,,Unknown,170,2013-02-09 21:51:00
5:51 PM,24.1,14.0,65,30.37,-9999.0,SSE,3.5,-,N/A,,Unknown,160,2013-02-09 22:51:00
6:51 PM,21.0,12.9,71,30.36,-9999.0,SSE,3.5,-,N/A,,Unknown,160,2013-02-09 23:51:00
7:51 PM,19.9,14.0,78,30.35,-9999.0,Calm,Calm,-,N/A,,Unknown,0,2013-02-10 00:51:00
8:51 PM,19.9,15.1,81,30.34,-9999.0,SSE,4.6,-,N/A,,Unknown,150,2013-02-10 01:51:00
9:51 PM,19.9,14.0,78,30.34,-9999.0,SSE,3.5,-,N/A,,Unknown,160,2013-02-10 02:51:00
10:51 PM,19.9,14.0,78,30.32,-9999.0,Variable,5.8,-,N/A,,Unknown,0,2013-02-10 03:51:00
11:51 PM,19.0,14.0,81,30.31,-9999.0,SSE,5.8,-,N/A,,Unknown,160,2013-02-10 04:51:00